Location: Ailly
(50.0793°N, 1.9944°E)
Time: 09:21:37
(UTC+00:00)

Cosmos 1758 - Pass Details

Date: 15 January 2026
Orbit: 479 x 500 km, 82.5° (Epoch: 16 February)

Event Time Altitude Azimuth Distance (km) Brightness Sun altitude
Rises 06:37:26 0° 214° (SW) 2,582 6.6 -10.5°
Reaches altitude 10° 06:39:44 10° 226° (SW) 1,700 5.6 -10.2°
Maximum altitude 06:43:02 29° 288° (WNW) 938 3.9 -9.7°
Drops below altitude 10° 06:46:19 10° 350° (N) 1,702 5.5 -9.2°
Sets 06:48:38 0° 2° (N) 2,585 6.5 -8.8°
